Flag for U.S.A. Weather past 2 weeks in Stockton, California, U.S.A.

Now
50 °F

Clear.


Feels Like: 48 °F
Forecast: 41 / 62 °F
Wind: 5 mph from East

Location: Stockton Metropolitan Airport

Current Time: Jan 31, 2015 at 9:39:18 PM

Latest Report: Jan 31, 2015 at 8:55 PM


Visibility: 5 mi

Pressure: 30.02 "Hg

Humidity: 83%

Dew point: 45 °F

Location of StocktonLocation

Historic Weather in Stockton — Graph

°F

Stockton temperature yesterday

Maximum temperature yesterday: 66 °F (at 3:55 PM)
Minimum temperature yesterday: 37 °F (at 5:55 AM)
Average temperature yesterday: 50 °F

Past Weeks' High & Low Weather Summary

 TemperatureHumidityPressure
High70 °F (Jan 31, 3:55 PM)100% (Jan 18, 8:55 AM)30.39 "Hg (Jan 18, 8:55 AM)
Low36 °F (Jan 23, 1:55 AM)27% (Jan 31, 2:55 PM)29.86 "Hg (Jan 30, 4:55 PM)
Average49 °F87%30.16 "Hg
* Reported Jan 16 7:55 PM — Jan 31 7:55 PM, Stockton, Weather by CustomWeather, © 2014

Note: Actual official high and low records may vary slightly from our data, if they occured in-between our weather recording intervals... More about our weather records

Advertising

Stockton weather history for previous 24 hours

 ConditionsComfort  
Time TempWeatherWind HumidityBarometerVisibility
7:55 PM
Jan 31
53 °FClear.7 mph74%30.00 "Hg7 mi
6:55 PM54 °FClear.6 mph59%30.00 "Hg10 mi
5:55 PM58 °FClear.7 mph51%29.97 "Hg10 mi
4:55 PM64 °FSunny.7 mph41%29.96 "Hg10 mi
3:55 PM70 °FSunny.3 mph27%29.95 "Hg10 mi
2:55 PM69 °FSunny.No wind27%29.95 "Hg10 mi
1:55 PM68 °FSunny.No wind28%29.95 "Hg10 mi
12:55 PM66 °FSunny.3 mph29%29.96 "Hg10 mi
11:55 AM63 °FSunny.13 mph35%29.96 "Hg10 mi
10:55 AM58 °FSunny.8 mph46%29.98 "Hg10 mi
9:55 AM53 °FSunny.5 mph55%29.98 "Hg10 mi
8:55 AM49 °FSunny.5 mph61%29.98 "Hg10 mi
7:55 AM44 °FSunny.6 mph76%29.96 "Hg10 mi
6:55 AM40 °FFog.14 mph93%29.94 "Hg5 mi
5:55 AM42 °FFog.No wind100%29.91 "Hg0 mi
4:55 AM40 °FFog.5 mph100%29.90 "Hg1 mi
3:55 AM36 °FFog.No wind100%29.90 "Hg0 mi
2:55 AM43 °FFog.3 mph93%29.89 "Hg2 mi
1:55 AM42 °FFog.No wind96%29.89 "Hg2 mi
12:55 AM42 °FFog.No wind92%29.89 "Hg4 mi
11:55 PM
Jan 30
45 °FFog.3 mph90%29.90 "Hg6 mi
10:55 PM46 °FClear.3 mph86%29.89 "Hg9 mi
9:55 PM48 °FClear.5 mph83%29.89 "Hg10 mi
Weather by CustomWeather, © 2014

See weather overviewHow to use our weather pages